This demonstration page uses our WeatherBlox Daily Observations layout. Learn more.

Left ArrowRight Arrow

Hourly Observations for May 29, 2016

Temp ( °F °C ) Dew Point ( °F °C ) Humidity (%) Winds ( mph kmh ) Pressure ( in mb ) Visibility ( mi km ) Precip ( " mm )
12:54 am 00:54 Clear 59 15 56 13.3 90 90 Calm 29.99 1016 10 16 0.00 0.00
1:54 am 01:54 Clear 60 15.6 56 13.3 86 86 Calm 29.99 1016 10 16 0.00 0.00
2:54 am 02:54 Clear 59 15 56 13.3 90 90 Calm 29.99 1016 10 16 0.00 0.00
3:54 am 03:54 Clear 59 15 55 12.8 87 87 Calm 29.99 1016 10 16 0.00 0.00
4:54 am 04:54 Partly Cloudy 56 13.3 54 12.2 93 93 Calm 30.01 1016 8 13 0.00 0.00
5:54 am 05:54 Clear 56 13.3 54 12.2 93 93 SSW 3 6 30.03 1017 10 16 0.00 0.00
6:54 am 06:54 Mostly Sunny 58 14.4 56 13.3 93 93 Calm 30.05 1018 9 14 0.00 0.00
7:54 am 07:54 Mostly Cloudy 62 16.7 58 14.4 86 86 Calm 30.07 1018 9 14 0.00 0.00
8:54 am 08:54 Mostly Cloudy 66 18.9 58 14.4 75 75 S 7 11 30.08 1019 10 16 0.00 0.00
9:54 am 09:54 Sunny 71 21.7 60 15.6 68 68 SSW 3 6 30.08 1019 10 16 0.00 0.00
10:54 am 10:54 Sunny 74 23.3 61 16.1 64 64 VRB 3 6 30.08 1019 10 16 0.00 0.00
11:54 am 11:54 Sunny 80 26.7 58 14.4 47 47 SW 7 11 30.07 1018 10 16 0.00 0.00
12:54 pm 12:54 Sunny 83 28.3 56 13.3 40 40 WSW 13 20 30.05 1018 10 16 0.00 0.00
1:54 pm 13:54 Sunny 84 28.9 56 13.3 38 38 W 10 17 30.04 1017 10 16 0.00 0.00
2:54 pm 14:54 Sunny 85 29.4 56 13.3 37 37 W 9 15 30.02 1017 10 16 0.00 0.00
3:54 pm 15:54 Sunny 86 30 54 12.2 33 33 WSW 8 13 30.01 1016 10 16 0.00 0.00
4:54 pm 16:54 Sunny 87 30.6 55 12.8 34 34 W 9 15 29.98 1015 10 16 0.00 0.00
5:54 pm 17:54 Sunny 85 29.4 57 13.9 39 39 Calm 29.96 1015 10 16 0.00 0.00
6:54 pm 18:54 Sunny 81 27.2 62 16.7 53 53 S 5 7 29.96 1015 10 16 0.00 0.00
7:54 pm 19:54 Sunny 79 26.1 61 16.1 54 54 SSE 3 6 29.96 1015 10 16 0.00 0.00
8:54 pm 20:54 Clear 77 25 61 16.1 58 58 S 8 13 29.97 1015 10 16 0.00 0.00
9:54 pm 21:54 Clear 74 23.3 61 16.1 64 64 SSE 6 9 29.97 1015 10 16 0.00 0.00
10:54 pm 22:54 Clear 71 21.7 62 16.7 73 73 Calm 29.98 1015 10 16 0.00 0.00
11:54 pm 23:54 Clear 72 22.2 62 16.7 71 71 SW 5 7 30.00 1016 10 16 0.00 0.00

Powered by AerisWeather